Location: Bacharowice
(49.9333°N, 19.5833°E)
Time: 07:54:44
(UTC+00:00)

Cosmos 2344 - Pass Details

Date: 30 September 2021
Orbit: 1235 x 3007 km, 63.3° (Epoch: 19 October)

Event Time Altitude Azimuth Distance (km) Brightness Sun altitude
Rises 20:34:21 0° 313° (NW) 4,381 7.3 -37.0°
Reaches altitude 10° 20:36:58 10° 317° (NW) 3,520 6.6 -37.3°
Maximum altitude 20:45:34 67° 40° (NE) 1,836 4.2 -38.1°
Enters shadow 20:46:04 66° 56° (NE) 1,865 4.2 -38.2°
